Vorticity
9 9 8 5 4 5 6 7 7 8 8 5 2 2 3 3 5 6 9 11 9 8 8 7 7 7 8 8 8 8 8 8 7 5 6 8 10 11 7 8 6 4 9
6 4 4 8 9 8 8 7 5 2 1 2 4 6 7 9 11 11 8 7 8 7 6 6 5 5 5 6 6 6 7 7 7 6 5 6 8 9 10 10 7 7 7
6 8 9 8 8 5 3 1 1 3 5 7 10 10 10 8 9 10 9 7 7 7 8 8 9 9 9 9 9 8 7 5 5 5 4 4 5 8 9 11 9 9 7
11 9 6 4 2 1 2 3 5 7 10 10 8 10 11 11 11 11 11 11 11 11 12 12 12 12 12 12 12 11 11 11 11 11 11 10 9 11 10 12 13 10 9
5 3 2 2 2 3 5 8 10 9 10 10 12 13 14 12 11 10 9 8 7 7 7 9 10 12 14 13 12 12 12 13 13 12 12 12 13 15 15 15 13 14 13
2 2 1 4 6 9 9 9 14 12 13 15 12 7 6 5 6 7 9 9 10 11 11 12 13 14 15 16 14 13 12 13 12 13 14 14 12 11 13 16 16 15 16
-0 5 11 10 8 13 15 11 12 12 9 5 6 7 7 8 8 8 8 9 9 9 13 15 16 16 17 19 18 17 14 12 13 13 15 14 12 9 11 12 13 14 14
12 7 11 16 14 11 11 10 8 6 6 7 8 9 9 9 12 13 10 10 11 13 17 19 17 16 14 17 19 16 16 16 18 17 13 12 14 17 12 14 13 14 13
15 15 11 9 10 10 9 6 5 5 7 8 10 11 12 12 9 9 17 22 20 15 13 14 19 16 18 10 10 14 17 18 21 18 18 17 22 15 16 14 12 12 13
10 11 12 12 10 5 2 5 9 9 11 11 9 7 7 11 16 25 11 12 13 14 13 17 19 18 15 11 16 18 8 7 12 13 7 4 11 14 12 14 12 14 13
11 9 7 6 7 4 7 7 9 10 14 18 21 25 25 24 16 10 12 11 13 13 13 15 17 17 13 14 4 5 0 -1 18 23 11 17 8 12 11 12 16 11 9
12 11 9 6 2 3 6 7 10 11 21 10 6 10 11 10 12 11 11 10 12 13 15 16 18 18 16 15 15 13 11 13 15 6 4 5 25 5 9 12 11 18 9
6 5 4 4 1 5 9 9 11 21 10 10 16 14 14 13 10 11 9 10 16 17 13 10 16 18 14 14 13 13 12 11 10 11 9 15 4 13 32 0 4 14 16
4 4 3 1 4 7 4 20 24 19 16 10 8 11 13 13 11 9 8 10 12 19 12 9 11 14 14 12 12 11 12 12 11 10 13 13 12 12 7 44 12 -11 8
3 2 1 3 7 3 15 17 14 14 6 8 11 11 12 11 11 8 7 9 9 14 10 8 15 15 13 14 13 14 14 14 14 15 17 18 18 16 13 11 11 8 18
1 2 2 6 8 11 16 12 14 9 8 8 11 13 14 11 11 8 6 6 10 11 13 9 13 9 8 10 12 15 14 14 15 16 15 18 19 19 17 16 13 4 17
2 3 7 8 13 18 12 10 6 7 9 11 11 14 16 13 11 9 7 7 7 13 11 12 8 5 4 5 5 7 12 11 12 14 13 9 8 8 4 17 19 15 15
6 9 11 18 13 9 10 8 8 9 10 11 13 15 16 18 15 11 10 9 9 13 12 10 11 6 5 5 5 5 8 15 13 9 9 6 7 8 5 12 6 19 13
14 16 9 10 13 11 10 11 11 13 14 14 15 15 16 15 17 16 16 14 14 15 14 10 10 12 11 8 8 8 9 16 19 16 11 9 9 10 7 8 15 7 17
8 13 12 10 12 15 16 16 18 17 17 17 17 17 14 13 12 16 18 19 16 14 13 15 12 8 10 12 12 11 12 14 16 16 13 11 10 7 11 12 9 18 11
15 19 19 19 19 19 19 19 19 18 18 18 19 20 18 14 13 14 14 12 14 18 17 13 15 15 12 12 13 13 15 16 15 15 12 11 8 16 14 19 21 22 10
17 19 20 20 20 19 18 18 19 19 18 18 18 18 19 18 16 13 10 12 14 16 17 16 16 16 14 15 15 14 13 16 18 12 12 8 16 17 16 16 16 17 14
19 18 17 17 18 19 20 18 17 16 19 18 11 14 7 8 14 12 11 10 10 11 14 14 15 14 14 13 12 12 14 14 17 8 9 10 11 13 16 13 12 11 14
16 16 17 17 18 19 8 -6 10 19 25 8 4 12 18 16 13 11 10 9 9 10 10 10 9 9 9 9 10 9 7 13 17 7 9 10 9 12 13 14 15 17 17
20 19 17 16 14 21 11 7 27 12 13 17 20 18 17 15 14 12 11 10 12 14 14 14 12 12 14 12 9 9 6 15 18 8 9 8 15 19 11 8 14 17 17
12 16 21 20 22 22 22 18 9 10 12 12 8 7 9 11 12 12 12 14 15 15 15 17 16 14 14 16 19 15 13 19 12 9 11 14 20 13 10 11 16 17 19
Height
3113 3113 3113 3113 3112 3111 3109 3108 3106 3104 3101 3099 3097 3094 3091 3087 3084 3080 3077 3073 3070 3068 3064 3061 3059 3055 3053 3050 3046 3043 3039 3036 3026 3024 3028 3030 3026 3024 3022 3018 3014 3012 3012
3108 3107 3107 3106 3106 3104 3102 3100 3098 3096 3093 3091 3088 3084 3081 3077 3073 3069 3065 3063 3059 3056 3053 3049 3047 3044 3041 3039 3035 3031 3028 3025 3019 3013 3011 3017 3015 3013 3012 3009 3005 3002 3001
3102 3101 3101 3099 3098 3096 3094 3092 3091 3088 3085 3081 3078 3074 3070 3066 3063 3059 3054 3050 3048 3044 3041 3039 3036 3033 3029 3026 3022 3018 3016 3012 3009 3003 2999 2999 3001 3000 2997 2998 2996 2993 2990
3096 3095 3093 3092 3091 3090 3087 3084 3081 3077 3074 3070 3067 3063 3059 3054 3051 3046 3043 3039 3034 3031 3028 3024 3021 3018 3014 3010 3007 3004 3001 2997 2994 2991 2987 2985 2984 2987 2983 2982 2982 2981 2980
3090 3089 3088 3086 3084 3081 3078 3075 3070 3067 3064 3060 3056 3052 3047 3043 3039 3034 3029 3025 3021 3017 3014 3010 3006 3003 3000 2996 2991 2989 2986 2982 2979 2976 2974 2971 2969 2968 2968 2967 2964 2966 2967
3085 3082 3080 3077 3074 3071 3067 3064 3061 3057 3053 3049 3045 3039 3035 3032 3028 3023 3018 3011 3007 3003 2999 2995 2992 2988 2985 2982 2979 2975 2972 2969 2966 2963 2961 2958 2957 2955 2954 2951 2950 2949 2950
3077 3074 3071 3068 3064 3061 3056 3053 3050 3046 3042 3038 3034 3029 3024 3020 3015 3010 3004 2998 2993 2989 2985 2981 2977 2975 2971 2968 2966 2963 2960 2958 2954 2951 2949 2948 2946 2945 2945 2943 2941 2939 2939
3067 3064 3061 3057 3054 3050 3046 3043 3039 3035 3031 3027 3022 3017 3012 3007 3003 2997 2991 2984 2980 2976 2972 2968 2964 2962 2959 2955 2951 2950 2948 2946 2943 2939 2936 2935 2934 2934 2932 2931 2930 2930 2930
3058 3054 3050 3046 3043 3040 3037 3033 3030 3024 3020 3015 3010 3004 2999 2995 2990 2985 2979 2973 2969 2965 2961 2956 2953 2950 2948 2946 2941 2938 2936 2935 2931 2928 2925 2924 2923 2922 2921 2920 2920 2919 2918
3046 3043 3040 3037 3033 3030 3026 3022 3019 3014 3008 3003 2997 2993 2988 2983 2979 2973 2968 2962 2958 2954 2950 2946 2943 2940 2938 2935 2931 2928 2925 2925 2922 2919 2917 2915 2914 2912 2911 2910 2911 2910 2909
3037 3034 3031 3028 3024 3021 3017 3013 3008 3002 2996 2991 2985 2981 2976 2971 2967 2963 2959 2952 2947 2943 2939 2936 2932 2929 2927 2925 2922 2919 2917 2915 2912 2910 2908 2906 2904 2904 2903 2902 2902 2901 2901
3027 3024 3022 3020 3016 3012 3007 3002 2996 2990 2984 2979 2974 2970 2968 2962 2956 2953 2948 2943 2937 2932 2929 2926 2922 2919 2917 2914 2912 2910 2907 2905 2903 2901 2899 2897 2896 2895 2895 2894 2894 2893 2893
3018 3016 3014 3010 3006 3002 2995 2990 2984 2978 2973 2968 2963 2959 2955 2952 2947 2942 2938 2934 2929 2923 2920 2917 2913 2910 2907 2904 2902 2900 2898 2896 2894 2892 2891 2889 2888 2886 2885 2887 2886 2885 2885
3008 3006 3003 2998 2994 2990 2984 2978 2971 2967 2961 2957 2952 2948 2944 2941 2937 2933 2928 2923 2920 2916 2912 2908 2906 2902 2899 2896 2894 2891 2889 2887 2885 2883 2881 2879 2878 2877 2877 2875 2877 2877 2878
2998 2994 2991 2986 2982 2977 2972 2966 2960 2957 2951 2946 2942 2937 2932 2929 2927 2922 2918 2914 2910 2907 2903 2900 2898 2895 2891 2888 2886 2883 2881 2878 2877 2874 2872 2871 2869 2869 2868 2868 2867 2868 2869
2986 2983 2979 2974 2968 2963 2956 2952 2951 2944 2941 2935 2930 2926 2922 2917 2914 2911 2908 2904 2901 2898 2893 2891 2889 2887 2884 2881 2878 2876 2873 2871 2869 2866 2865 2863 2862 2861 2860 2861 2860 2860 2862
2976 2972 2966 2960 2954 2948 2943 2937 2932 2932 2925 2922 2917 2914 2909 2906 2902 2899 2896 2893 2890 2888 2885 2882 2880 2879 2876 2874 2871 2869 2866 2864 2861 2859 2858 2857 2856 2855 2854 2854 2853 2853 2854
2963 2958 2952 2946 2940 2935 2930 2924 2919 2914 2910 2907 2904 2899 2897 2894 2891 2887 2885 2882 2879 2877 2875 2872 2870 2869 2868 2865 2863 2861 2858 2856 2854 2852 2851 2850 2849 2848 2848 2847 2846 2846 2846
2949 2943 2937 2932 2926 2921 2916 2912 2907 2901 2896 2892 2889 2886 2883 2881 2878 2875 2873 2870 2867 2865 2864 2862 2861 2859 2858 2856 2854 2852 2850 2847 2845 2844 2843 2842 2841 2841 2840 2840 2839 2839 2839
2934 2929 2922 2916 2911 2906 2901 2896 2891 2886 2882 2878 2875 2873 2871 2868 2865 2863 2862 2859 2856 2854 2852 2851 2850 2849 2847 2846 2844 2842 2840 2838 2837 2835 2835 2834 2834 2833 2832 2832 2831 2832 2832
2919 2914 2908 2902 2896 2891 2886 2882 2877 2873 2869 2866 2863 2861 2859 2856 2854 2852 2850 2849 2847 2845 2842 2840 2839 2838 2837 2835 2834 2832 2831 2829 2828 2828 2827 2827 2826 2825 2824 2823 2822 2823 2824
2905 2899 2894 2888 2883 2878 2873 2870 2866 2862 2859 2855 2853 2851 2849 2847 2844 2842 2841 2839 2836 2834 2832 2830 2829 2828 2827 2826 2825 2824 2822 2821 2820 2820 2820 2819 2818 2817 2816 2816 2815 2816 2817
2893 2887 2882 2877 2872 2867 2863 2860 2856 2853 2850 2847 2845 2842 2840 2838 2836 2834 2832 2830 2828 2826 2824 2822 2820 2819 2818 2817 2816 2815 2814 2813 2813 2813 2812 2812 2811 2810 2810 2809 2810 2810 2811
2882 2876 2871 2867 2862 2858 2855 2852 2849 2845 2842 2840 2837 2834 2832 2829 2827 2825 2824 2822 2819 2818 2816 2814 2812 2810 2809 2808 2807 2806 2806 2805 2805 2805 2805 2804 2804 2804 2803 2803 2803 2804 2804
2874 2868 2863 2859 2854 2850 2847 2845 2841 2839 2835 2832 2829 2826 2824 2822 2819 2817 2815 2813 2810 2808 2806 2804 2803 2801 2800 2799 2798 2797 2797 2797 2797 2797 2797 2797 2796 2796 2797 2797 2798 2798 2798
2869 2863 2857 2852 2847 2843 2840 2837 2835 2832 2830 2827 2823 2820 2817 2814 2811 2808 2806 2803 2801 2798 2796 2795 2793 2791 2790 2789 2788 2788 2788 2788 2789 2789 2789 2788 2788 2789 2790 2791 2792 2792 2793